| time (UTC) | temp F | wind direction | speed MPH | gust MPH | rain 1hr in | rain 24hr in | rain mn in | humidity % | barometer mb |
| 20260506033105 | 49 | 6 | 5.0 | 16.0 | 0.00 | 0.00 | 0.00 | 89 | 1010.0 |
| 20260506032604 | 49 | 57 | 6.0 | 15.0 | 0.00 | 0.00 | 0.00 | 89 | 1010.0 |
| 20260506032104 | 49 | 105 | 8.0 | 20.0 | 0.00 | 0.00 | 0.00 | 89 | 1010.0 |
| 20260506031604 | 49 | 49 | 7.0 | 24.0 | 0.00 | 0.00 | 0.00 | 89 | 1010.0 |
| 20260506031105 | 49 | 41 | 6.0 | 24.0 | 0.00 | 0.00 | 0.00 | 89 | 1010.0 |
| 20260506030605 | 49 | 86 | 6.0 | 14.0 | 0.00 | 0.00 | 0.00 | 89 | 1009.9 |
| 20260506030105 | 49 | 10 | 5.0 | 18.0 | 0.00 | 0.00 | 0.00 | 88 | 1010.1 |
| 20260506025605 | 49 | 46 | 4.0 | 10.0 | 0.00 | 0.00 | 0.00 | 88 | 1010.2 |
| 20260506025105 | 49 | 48 | 5.0 | 17.0 | 0.00 | 0.00 | 0.00 | 88 | 1010.2 |
| 20260506024605 | 49 | 84 | 5.0 | 17.0 | 0.00 | 0.00 | 0.00 | 88 | 1010.1 |
| 20260506023605 | 49 | 56 | 7.0 | 22.0 | 0.00 | 0.00 | 0.00 | 87 | 1010.2 |
| 20260506023105 | 49 | 63 | 7.0 | 23.0 | 0.00 | 0.00 | 0.00 | 87 | 1010.3 |
| 20260506022604 | 49 | 38 | 4.0 | 13.0 | 0.00 | 0.00 | 0.00 | 87 | 1010.2 |
| 20260506022104 | 49 | 69 | 4.0 | 14.0 | 0.00 | 0.00 | 0.00 | 87 | 1010.4 |
| 20260506021604 | 49 | 53 | 5.0 | 15.0 | 0.00 | 0.00 | 0.00 | 87 | 1010.3 |
| 20260506021105 | 49 | 41 | 6.0 | 12.0 | 0.00 | 0.00 | 0.00 | 87 | 1010.2 |
| 20260506020104 | 50 | 60 | 6.0 | 20.0 | 0.00 | 0.00 | 0.00 | 87 | 1010.3 |
| 20260506015604 | 50 | 58 | 6.0 | 20.0 | 0.00 | 0.00 | 0.00 | 87 | 1010.4 |
| 20260506014604 | 50 | 40 | 7.0 | 15.0 | 0.00 | 0.00 | 0.00 | 87 | 1010.5 |
| 20260506014105 | 50 | 66 | 7.0 | 26.0 | 0.00 | 0.00 | 0.00 | 87 | 1010.5 |
| 20260506013604 | 50 | 38 | 8.0 | 20.0 | 0.00 | 0.00 | 0.00 | 88 | 1010.5 |
| 20260506013104 | 50 | 50 | 6.0 | 17.0 | 0.00 | 0.00 | 0.00 | 88 | 1010.5 |
| 20260506012105 | 50 | 16 | 9.0 | 25.0 | 0.00 | 0.00 | 0.00 | 89 | 1010.7 |
| 20260506011605 | 50 | 42 | 10.0 | 25.0 | 0.00 | 0.00 | 0.00 | 89 | 1010.5 |
| 20260506011105 | 50 | 73 | 5.0 | 16.0 | 0.00 | 0.00 | 0.00 | 89 | 1010.6 |
| 20260506010605 | 50 | 34 | 7.0 | 21.0 | 0.00 | 0.00 | 0.00 | 89 | 1010.6 |
| 20260506010104 | 50 | 27 | 9.0 | 22.0 | 0.00 | 0.00 | 0.00 | 89 | 1010.6 |
| 20260506005604 | 50 | 26 | 6.0 | 20.0 | 0.00 | 0.00 | 0.00 | 89 | 1010.8 |
| 20260506004604 | 50 | 28 | 8.0 | 24.0 | 0.00 | 0.00 | 0.00 | 89 | 1010.6 |
| 20260506004104 | 50 | 11 | 10.0 | 26.0 | 0.00 | 0.00 | 0.00 | 90 | 1010.5 |
| 20260506003605 | 50 | 37 | 6.0 | 21.0 | 0.00 | 0.00 | 0.00 | 90 | 1010.6 |
| 20260506003105 | 50 | 42 | 8.0 | 21.0 | 0.00 | 0.00 | 0.00 | 90 | 1010.7 |
| 20260506002605 | 50 | 36 | 9.0 | 22.0 | 0.00 | 0.00 | 0.00 | 90 | 1010.5 |
| 20260506002105 | 49 | 49 | 6.0 | 22.0 | 0.00 | 0.00 | 0.00 | 90 | 1010.8 |
| 20260506001604 | 49 | 35 | 8.0 | 22.0 | 0.00 | 0.00 | 0.00 | 90 | 1010.9 |
| 20260506001105 | 49 | 55 | 7.0 | 23.0 | 0.00 | 0.00 | 0.00 | 90 | 1010.8 |
| 20260506000105 | 49 | 35 | 10.0 | 31.0 | 0.00 | 0.00 | 0.00 | 90 | 1010.7 |
| 20260505235605 | 49 | 36 | 7.0 | 32.0 | 0.00 | 0.00 | 0.00 | 90 | 1010.8 |
| 20260505235104 | 49 | 33 | 7.0 | 25.0 | 0.00 | 0.00 | 0.00 | 89 | 1010.8 |
| 20260505234605 | 49 | 36 | 7.0 | 25.0 | 0.00 | 0.00 | 0.00 | 89 | 1010.5 |
| 20260505234106 | 49 | 38 | 7.0 | 21.0 | 0.00 | 0.00 | 0.00 | 89 | 1010.8 |
| 20260505233605 | 49 | 50 | 5.0 | 23.0 | 0.00 | 0.00 | 0.00 | 89 | 1010.8 |
| 20260505233104 | 49 | 43 | 8.0 | 23.0 | 0.00 | 0.00 | 0.00 | 89 | 1010.5 |
| 20260505232605 | 49 | 15 | 10.0 | 30.0 | 0.00 | 0.00 | 0.00 | 88 | 1010.6 |
| 20260505232105 | 49 | 33 | 9.0 | 32.0 | 0.00 | 0.00 | 0.00 | 88 | 1010.6 |
| 20260505231605 | 49 | 30 | 9.0 | 31.0 | 0.00 | 0.00 | 0.00 | 88 | 1010.5 |
| 20260505231106 | 49 | 18 | 9.0 | 31.0 | 0.00 | 0.00 | 0.00 | 88 | 1010.5 |
| 20260505230104 | 49 | 71 | 7.0 | 23.0 | 0.00 | 0.00 | 0.00 | 87 | 1010.8 |
| 20260505225605 | 49 | 22 | 12.0 | 30.0 | 0.00 | 0.00 | 0.00 | 87 | 1010.9 |
| 20260505225105 | 49 | 23 | 13.0 | 30.0 | 0.00 | 0.00 | 0.00 | 87 | 1010.6 |
| 20260505224605 | 49 | 23 | 9.0 | 22.0 | 0.00 | 0.00 | 0.00 | 87 | 1010.6 |
| 20260505224105 | 49 | 40 | 9.0 | 25.0 | 0.00 | 0.00 | 0.00 | 87 | 1010.9 |
| 20260505223104 | 49 | 36 | 11.0 | 25.0 | 0.00 | 0.00 | 0.00 | 87 | 1010.8 |
| 20260505222605 | 49 | 38 | 8.0 | 25.0 | 0.00 | 0.00 | 0.00 | 87 | 1010.8 |
| 20260505221605 | 49 | 19 | 9.0 | 24.0 | 0.00 | 0.00 | 0.00 | 87 | 1010.6 |
| 20260505221104 | 49 | 32 | 9.0 | 29.0 | 0.00 | 0.00 | 0.00 | 87 | 1010.7 |
| 20260505220604 | 49 | 34 | 12.0 | 26.0 | 0.00 | 0.00 | 0.00 | 87 | 1010.7 |
| 20260505215604 | 50 | 43 | 10.0 | 21.0 | 0.00 | 0.00 | 0.00 | 87 | 1010.8 |
| 20260505215104 | 50 | 36 | 7.0 | 25.0 | 0.00 | 0.00 | 0.00 | 87 | 1010.7 |
| 20260505214604 | 50 | 35 | 9.0 | 28.0 | 0.00 | 0.00 | 0.00 | 87 | 1010.6 |
| 20260505214105 | 50 | 21 | 11.0 | 23.0 | 0.00 | 0.00 | 0.00 | 87 | 1010.6 |
| 20260505211605 | 50 | 34 | 7.0 | 25.0 | 0.00 | 0.00 | 0.00 | 86 | 1010.6 |
| 20260505211104 | 50 | 24 | 10.0 | 30.0 | 0.00 | 0.00 | 0.00 | 85 | 1011.0 |
| 20260505210604 | 50 | 36 | 7.0 | 33.0 | 0.00 | 0.00 | 0.00 | 85 | 1010.8 |
| 20260505210104 | 50 | 22 | 11.0 | 26.0 | 0.00 | 0.00 | 0.00 | 85 | 1010.9 |
| 20260505205605 | 51 | 25 | 10.0 | 31.0 | 0.00 | 0.00 | 0.00 | 84 | 1010.9 |
| 20260505204604 | 51 | 26 | 12.0 | 31.0 | 0.00 | 0.00 | 0.00 | 84 | 1010.7 |
| 20260505204104 | 51 | 46 | 6.0 | 18.0 | 0.00 | 0.00 | 0.00 | 84 | 1010.9 |
| 20260505203604 | 51 | 20 | 10.0 | 23.0 | 0.00 | 0.00 | 0.00 | 84 | 1010.7 |
| 20260505202604 | 51 | 28 | 7.0 | 22.0 | 0.00 | 0.00 | 0.00 | 83 | 1010.7 |
| 20260505202104 | 51 | 35 | 10.0 | 23.0 | 0.00 | 0.00 | 0.00 | 82 | 1010.8 |
| 20260505201605 | 51 | 37 | 9.0 | 28.0 | 0.00 | 0.00 | 0.00 | 82 | 1010.7 |
| 20260505201105 | 51 | 31 | 8.0 | 18.0 | 0.00 | 0.00 | 0.00 | 82 | 1010.6 |
| 20260505200605 | 51 | 84 | 7.0 | 22.0 | 0.00 | 0.00 | 0.00 | 81 | 1010.6 |
| 20260505200104 | 51 | 36 | 9.0 | 24.0 | 0.00 | 0.00 | 0.00 | 81 | 1010.5 |
| 20260505195605 | 52 | 24 | 7.0 | 20.0 | 0.00 | 0.00 | 0.00 | 81 | 1010.2 |
| 20260505195105 | 52 | 43 | 7.0 | 20.0 | 0.00 | 0.00 | 0.00 | 80 | 1010.3 |
| 20260505194604 | 52 | 35 | 7.0 | 20.0 | 0.00 | 0.00 | 0.00 | 80 | 1010.2 |
| 20260505194104 | 52 | 28 | 7.0 | 24.0 | 0.00 | 0.00 | 0.00 | 79 | 1010.4 |
| 20260505193604 | 52 | 33 | 10.0 | 24.0 | 0.00 | 0.00 | 0.00 | 79 | 1010.3 |
| 20260505193104 | 53 | 35 | 8.0 | 24.0 | 0.00 | 0.00 | 0.00 | 78 | 1010.1 |
| 20260505192604 | 53 | 23 | 9.0 | 24.0 | 0.00 | 0.00 | 0.00 | 77 | 1010.1 |
| 20260505192105 | 53 | 60 | 7.0 | 20.0 | 0.00 | 0.00 | 0.00 | 76 | 1010.0 |
| 20260505191105 | 54 | 31 | 7.0 | 23.0 | 0.00 | 0.00 | 0.00 | 75 | 1010.0 |
| 20260505185604 | 54 | 39 | 5.0 | 22.0 | 0.00 | 0.00 | 0.00 | 74 | 1010.2 |
| 20260505185104 | 55 | 54 | 7.0 | 17.0 | 0.00 | 0.00 | 0.00 | 73 | 1010.1 |
| 20260505184604 | 55 | 19 | 9.0 | 23.0 | 0.00 | 0.00 | 0.00 | 73 | 1010.1 |
| 20260505183604 | 55 | 46 | 7.0 | 22.0 | 0.00 | 0.00 | 0.00 | 72 | 1010.0 |
| 20260505183105 | 55 | 32 | 7.0 | 17.0 | 0.00 | 0.00 | 0.00 | 72 | 1010.2 |
| 20260505182604 | 55 | 37 | 6.0 | 20.0 | 0.00 | 0.00 | 0.00 | 71 | 1010.2 |
| 20260505182104 | 55 | 72 | 6.0 | 25.0 | 0.00 | 0.00 | 0.00 | 71 | 1010.0 |
| 20260505181605 | 55 | 50 | 10.0 | 20.0 | 0.00 | 0.00 | 0.00 | 69 | 1010.0 |
| 20260505181104 | 55 | 53 | 8.0 | 23.0 | 0.00 | 0.00 | 0.00 | 69 | 1009.9 |
| 20260505180605 | 56 | 35 | 9.0 | 23.0 | 0.00 | 0.00 | 0.00 | 68 | 1010.1 |
| 20260505180104 | 56 | 53 | 10.0 | 25.0 | 0.00 | 0.00 | 0.00 | 67 | 1009.9 |
| 20260505175605 | 56 | 59 | 9.0 | 24.0 | 0.00 | 0.00 | 0.00 | 66 | 1010.0 |
| 20260505175104 | 56 | 41 | 10.0 | 25.0 | 0.00 | 0.00 | 0.00 | 65 | 1010.1 |
| 20260505174605 | 57 | 55 | 9.0 | 21.0 | 0.00 | 0.00 | 0.00 | 64 | 1010.0 |
| 20260505174105 | 57 | 67 | 9.0 | 28.0 | 0.00 | 0.00 | 0.00 | 65 | 1009.8 |
| 20260505173604 | 57 | 55 | 7.0 | 23.0 | 0.00 | 0.00 | 0.00 | 64 | 1010.0 |
| 20260505172604 | 57 | 42 | 12.0 | 23.0 | 0.00 | 0.00 | 0.00 | 63 | 1010.1 |
| 20260505172104 | 56 | 60 | 6.0 | 23.0 | 0.00 | 0.00 | 0.00 | 64 | 1009.9 |
| 20260505171604 | 56 | 47 | 6.0 | 16.0 | 0.00 | 0.00 | 0.00 | 64 | 1010.0 |
| 20260505171105 | 56 | 31 | 7.0 | 16.0 | 0.00 | 0.00 | 0.00 | 65 | 1010.1 |
| 20260505170105 | 57 | 59 | 6.0 | 22.0 | 0.00 | 0.00 | 0.00 | 63 | 1010.2 |
| 20260505165604 | 57 | 53 | 7.0 | 23.0 | 0.00 | 0.00 | 0.00 | 62 | 1010.2 |
| 20260505164604 | 57 | 54 | 7.0 | 26.0 | 0.00 | 0.00 | 0.00 | 63 | 1010.0 |
| 20260505164105 | 57 | 51 | 10.0 | 36.0 | 0.00 | 0.00 | 0.00 | 62 | 1010.0 |
| 20260505163604 | 58 | 39 | 9.0 | 36.0 | 0.00 | 0.00 | 0.00 | 62 | 1010.1 |
| 20260505163104 | 59 | 39 | 9.0 | 25.0 | 0.00 | 0.00 | 0.00 | 61 | 1010.3 |
| 20260505162604 | 58 | 46 | 12.0 | 26.0 | 0.00 | 0.00 | 0.00 | 61 | 1010.0 |
| 20260505162104 | 58 | 64 | 7.0 | 23.0 | 0.00 | 0.00 | 0.00 | 62 | 1010.0 |
| 20260505161604 | 58 | 68 | 7.0 | 23.0 | 0.00 | 0.00 | 0.00 | 63 | 1009.9 |
| 20260505160604 | 57 | 48 | 9.0 | 20.0 | 0.00 | 0.00 | 0.00 | 64 | 1010.3 |
| 20260505160104 | 57 | 59 | 8.0 | 23.0 | 0.00 | 0.00 | 0.00 | 64 | 1010.3 |
| 20260505153104 | 57 | 44 | 10.0 | 28.0 | 0.00 | 0.00 | 0.00 | 68 | 1010.2 |
| 20260505152604 | 56 | 42 | 13.0 | 24.0 | 0.00 | 0.00 | 0.00 | 68 | 1010.4 |
| 20260505152104 | 56 | 30 | 10.0 | 26.0 | 0.00 | 0.00 | 0.00 | 69 | 1010.4 |
| 20260505151605 | 57 | 16 | 8.0 | 23.0 | 0.00 | 0.00 | 0.00 | 71 | 1010.3 |
| 20260505151104 | 57 | 61 | 7.0 | 29.0 | 0.00 | 0.00 | 0.00 | 71 | 1010.5 |
| 20260505150605 | 57 | 66 | 8.0 | 18.0 | 0.00 | 0.00 | 0.00 | 71 | 1010.3 |
| 20260505150104 | 56 | 50 | 7.0 | 24.0 | 0.00 | 0.00 | 0.00 | 72 | 1010.4 |
| 20260505140604 | 59 | 46 | 12.0 | 32.0 | 0.00 | 0.00 | 0.00 | 66 | 1010.4 |
| 20260505140105 | 58 | 50 | 12.0 | 32.0 | 0.00 | 0.00 | 0.00 | 66 | 1010.4 |
| 20260505130104 | 57 | 60 | 9.0 | 28.0 | 0.00 | 0.00 | 0.00 | 67 | 1010.6 |
| 20260505124604 | 57 | 40 | 8.0 | 29.0 | 0.00 | 0.00 | 0.00 | 69 | 1010.5 |
| 20260505124105 | 57 | 29 | 10.0 | 33.0 | 0.00 | 0.00 | 0.00 | 69 | 1010.7 |
| 20260505123104 | 58 | 36 | 14.0 | 32.0 | 0.00 | 0.00 | 0.00 | 68 | 1010.8 |
| 20260505122604 | 57 | 53 | 11.0 | 30.0 | 0.00 | 0.00 | 0.00 | 68 | 1010.7 |
| 20260505122104 | 57 | 39 | 11.0 | 30.0 | 0.00 | 0.00 | 0.00 | 69 | 1010.6 |
| 20260505121604 | 58 | 24 | 10.0 | 31.0 | 0.00 | 0.00 | 0.00 | 68 | 1010.8 |
| 20260505121104 | 58 | 27 | 7.0 | 24.0 | 0.00 | 0.00 | 0.00 | 68 | 1010.9 |
| 20260505120604 | 58 | 20 | 10.0 | 24.0 | 0.00 | 0.00 | 0.00 | 70 | 1010.8 |
| 20260505120104 | 58 | 23 | 8.0 | 26.0 | 0.00 | 0.00 | 0.00 | 70 | 1010.8 |
| 20260505115604 | 57 | 79 | 6.0 | 22.0 | 0.00 | 0.00 | 0.00 | 72 | 1010.9 |
| 20260505114604 | 57 | 17 | 9.0 | 20.0 | 0.00 | 0.00 | 0.00 | 72 | 1010.7 |
| 20260505113604 | 56 | 36 | 10.0 | 28.0 | 0.00 | 0.00 | 0.00 | 72 | 1010.8 |
| 20260505113104 | 56 | 43 | 7.0 | 25.0 | 0.00 | 0.00 | 0.00 | 73 | 1010.8 |
| 20260505112105 | 56 | 23 | 9.0 | 22.0 | 0.00 | 0.00 | 0.00 | 74 | 1010.9 |
| 20260505111604 | 56 | 43 | 13.0 | 26.0 | 0.00 | 0.00 | 0.00 | 73 | 1011.0 |
| 20260505111104 | 56 | 29 | 12.0 | 29.0 | 0.00 | 0.00 | 0.00 | 73 | 1011.0 |
| 20260505110604 | 56 | 28 | 11.0 | 33.0 | 0.00 | 0.00 | 0.00 | 73 | 1010.9 |
| 20260505101604 | 56 | 48 | 8.0 | 26.0 | 0.00 | 0.00 | 0.00 | 75 | 1011.2 |
| 20260505101104 | 55 | 38 | 10.0 | 21.0 | 0.00 | 0.00 | 0.00 | 75 | 1011.2 |
| 20260505100604 | 55 | 12 | 9.0 | 22.0 | 0.00 | 0.00 | 0.00 | 76 | 1011.4 |
| 20260505100104 | 55 | 33 | 10.0 | 30.0 | 0.00 | 0.00 | 0.00 | 76 | 1011.3 |
| 20260505095604 | 55 | 49 | 10.0 | 30.0 | 0.00 | 0.00 | 0.00 | 75 | 1011.3 |
| 20260505095105 | 55 | 39 | 10.0 | 26.0 | 0.00 | 0.00 | 0.00 | 75 | 1011.2 |
| 20260505094603 | 55 | 22 | 12.0 | 29.0 | 0.00 | 0.00 | 0.00 | 75 | 1011.4 |
| 20260505094104 | 55 | 63 | 7.0 | 25.0 | 0.00 | 0.00 | 0.00 | 75 | 1011.4 |
| 20260505093604 | 55 | 33 | 12.0 | 31.0 | 0.00 | 0.00 | 0.00 | 75 | 1011.4 |
| 20260505093104 | 56 | 40 | 12.0 | 28.0 | 0.00 | 0.00 | 0.00 | 74 | 1011.3 |
| 20260505092604 | 55 | 37 | 9.0 | 21.0 | 0.00 | 0.00 | 0.00 | 75 | 1011.3 |
| 20260505092104 | 55 | 37 | 12.0 | 29.0 | 0.00 | 0.00 | 0.00 | 75 | 1011.5 |
| 20260505091604 | 55 | 57 | 10.0 | 22.0 | 0.00 | 0.00 | 0.00 | 75 | 1011.3 |
| 20260505091104 | 55 | 48 | 8.0 | 29.0 | 0.00 | 0.00 | 0.00 | 75 | 1011.3 |
| 20260505090604 | 55 | 29 | 10.0 | 25.0 | 0.00 | 0.00 | 0.00 | 76 | 1011.2 |
| 20260505090105 | 56 | 29 | 10.0 | 24.0 | 0.00 | 0.00 | 0.00 | 76 | 1011.5 |
| 20260505085604 | 55 | 31 | 7.0 | 18.0 | 0.00 | 0.00 | 0.00 | 77 | 1011.4 |
| 20260505085104 | 55 | 38 | 8.0 | 26.0 | 0.00 | 0.00 | 0.00 | 77 | 1011.4 |
| 20260505084604 | 55 | 32 | 9.0 | 22.0 | 0.00 | 0.00 | 0.00 | 76 | 1011.3 |
| 20260505084104 | 55 | 61 | 8.0 | 32.0 | 0.00 | 0.00 | 0.00 | 77 | 1011.5 |
| 20260505083604 | 54 | 42 | 7.0 | 31.0 | 0.00 | 0.00 | 0.00 | 78 | 1011.5 |
| 20260505083104 | 54 | 16 | 10.0 | 30.0 | 0.00 | 0.00 | 0.00 | 78 | 1011.4 |
| 20260505082605 | 54 | 68 | 6.0 | 29.0 | 0.00 | 0.00 | 0.00 | 79 | 1011.3 |
| 20260505082105 | 53 | 71 | 9.0 | 30.0 | 0.00 | 0.00 | 0.00 | 79 | 1011.5 |
| 20260505081604 | 53 | 30 | 10.0 | 26.0 | 0.00 | 0.00 | 0.00 | 80 | 1011.4 |
| 20260505081104 | 53 | 60 | 6.0 | 17.0 | 0.00 | 0.00 | 0.00 | 81 | 1011.3 |
| 20260505080604 | 53 | 55 | 7.0 | 20.0 | 0.00 | 0.00 | 0.00 | 81 | 1011.4 |
| 20260505075604 | 53 | 30 | 7.0 | 17.0 | 0.00 | 0.00 | 0.00 | 81 | 1011.4 |
| 20260505075104 | 53 | 25 | 12.0 | 33.0 | 0.00 | 0.00 | 0.00 | 81 | 1011.5 |
| 20260505074604 | 52 | 53 | 7.0 | 28.0 | 0.00 | 0.00 | 0.00 | 81 | 1011.5 |
| 20260505074104 | 52 | 22 | 8.0 | 29.0 | 0.00 | 0.00 | 0.00 | 82 | 1011.3 |
| 20260505073604 | 52 | 30 | 6.0 | 22.0 | 0.00 | 0.00 | 0.00 | 83 | 1011.4 |
| 20260505072604 | 52 | 25 | 10.0 | 29.0 | 0.00 | 0.00 | 0.00 | 82 | 1011.2 |
| 20260505072105 | 52 | 52 | 9.0 | 28.0 | 0.00 | 0.00 | 0.00 | 82 | 1011.4 |
| 20260505071604 | 53 | 85 | 5.0 | 16.0 | 0.00 | 0.00 | 0.00 | 82 | 1011.3 |
| 20260505071104 | 53 | 46 | 7.0 | 23.0 | 0.00 | 0.00 | 0.00 | 82 | 1011.2 |
| 20260505070604 | 52 | 65 | 8.0 | 26.0 | 0.00 | 0.00 | 0.00 | 83 | 1011.5 |
| 20260505070103 | 51 | 33 | 12.0 | 22.0 | 0.00 | 0.00 | 0.00 | 84 | 1011.5 |
| 20260505065604 | 51 | 35 | 7.0 | 17.0 | 0.00 | 0.00 | 0.00 | 84 | 1011.4 |
| 20260505065104 | 51 | 63 | 9.0 | 22.0 | 0.00 | 0.00 | 0.00 | 84 | 1011.5 |
| 20260505064604 | 52 | 81 | 9.0 | 22.0 | 0.00 | 0.00 | 0.00 | 84 | 1011.4 |
| 20260505062604 | 51 | 43 | 7.0 | 22.0 | 0.00 | 0.00 | 0.00 | 86 | 1011.5 |
| 20260505062103 | 51 | 21 | 6.0 | 22.0 | 0.00 | 0.00 | 0.00 | 86 | 1011.5 |
| 20260505061604 | 51 | 84 | 5.0 | 28.0 | 0.00 | 0.00 | 0.00 | 86 | 1011.4 |
| 20260505061104 | 51 | 62 | 9.0 | 33.0 | 0.00 | 0.00 | 0.00 | 86 | 1011.3 |
| 20260505060604 | 50 | 69 | 5.0 | 17.0 | 0.00 | 0.00 | 0.00 | 86 | 1011.3 |
| 20260505055604 | 50 | 77 | 6.0 | 20.0 | 0.00 | 0.00 | 0.00 | 86 | 1011.4 |
| 20260505054604 | 50 | 21 | 6.0 | 20.0 | 0.00 | 0.00 | 0.00 | 87 | 1011.4 |
| 20260505054104 | 51 | 51 | 6.0 | 23.0 | 0.00 | 0.00 | 0.00 | 87 | 1011.6 |
| 20260505053604 | 50 | 77 | 7.0 | 13.0 | 0.00 | 0.00 | 0.00 | 88 | 1011.7 |
| 20260505053104 | 50 | 38 | 5.0 | 17.0 | 0.00 | 0.00 | 0.00 | 88 | 1011.8 |
| 20260505052604 | 50 | 44 | 9.0 | 25.0 | 0.00 | 0.00 | 0.00 | 89 | 1012.1 |
| 20260505052104 | 50 | 17 | 10.0 | 23.0 | 0.00 | 0.00 | 0.00 | 90 | 1011.9 |
| 20260505051604 | 49 | 59 | 9.0 | 20.0 | 0.00 | 0.00 | 0.00 | 90 | 1011.9 |
| 20260505051104 | 50 | 38 | 9.0 | 21.0 | 0.00 | 0.00 | 0.00 | 90 | 1011.8 |
| 20260505050104 | 50 | 26 | 10.0 | 24.0 | 0.00 | 0.00 | 0.00 | 91 | 1011.9 |
| 20260505041104 | 50 | 79 | 5.0 | 17.0 | 0.00 | 0.00 | 0.00 | 91 | 1011.9 |
| 20260505040604 | 50 | 65 | 10.0 | 22.0 | 0.00 | 0.00 | 0.00 | 91 | 1012.0 |
| 20260505040104 | 50 | 90 | 6.0 | 12.0 | 0.00 | 0.00 | 0.00 | 91 | 1011.7 |
| 20260505035604 | 50 | 96 | 6.0 | 12.0 | 0.00 | 0.00 | 0.00 | 91 | 1011.9 |
| 20260505035104 | 50 | 58 | 6.0 | 13.0 | 0.00 | 0.00 | 0.00 | 91 | 1011.9 |
| 20260505034604 | 50 | 62 | 6.0 | 20.0 | 0.00 | 0.00 | 0.00 | 91 | 1012.0 |